Location: Koussan�
(15.2012°N, 12.5548°W)
Time: 17:53:31
(UTC+00:00)

CZ-4 R/B - Pass Details

Date: 20 October 2020
Orbit: 532 x 598 km, 97.7° (Epoch: 30 November)

Event Time Altitude Azimuth Distance (km) Brightness Sun altitude
Rises 20:22:56 0° 194° (SSW) 2,781 5.1 -28.6°
Reaches altitude 10° 20:25:28 10° 209° (SSW) 1,872 4.4 -29.3°
Maximum altitude 20:28:37 22° 260° (W) 1,266 3.8 -30.0°
Drops below altitude 10° 20:31:43 10° 312° (NW) 1,842 4.5 -30.8°
Sets 20:34:13 0° 328° (NNW) 2,725 5.2 -31.4°
